Weather in Chernovskoye

Russia / Kirov Oblast     58°40′57″N   47°23′28″E
temp.,
°C
wind,
m/s
gust,
m/s
humid.,
%
clouds,
%
prec.,
mm/h
press.,
hPa
HPBL,
m
8 may, sat
sat800:00+4sw279814 0.0 1015194
03:00+3wsw23950 0.0 101661
06:00+6wsw12831 0.0 1017116
09:00+12s11585 0.0 1018687
12:00+14sse22425 0.0 10171783
15:00+15se34385 0.0 10161879
18:00+13ese365171 0.0 1015313
21:00+7se3107498 0.0 1014181
9 may, sun
sun900:00+7se3128746 0.0 1013335
03:00+8se51489100 0.0 1011424
06:00+10se51582100 0.0 1010702
09:00+11sse41277100 0.0 1010610
12:00+17sse61362100 0.0 10101191
15:00+18sse61259100 0.0 10101386
18:00+17sse51363100 0.0 10091074
21:00+14s61385100 0.6 1011910
10 may, mon
mon1000:00+12sw4897100 1.5 1012598
03:00+9wsw2697100 2.3 1015480
06:00+8wsw3694100 0.8 1018481
09:00+6nw4793100 0.9 1022590
12:00+7nnw4880100 0.1 1025961
15:00+12n36514 0.1 10261563
18:00+11nnw36524 0.0 1027615
21:00+6n11704 0.0 102910
11 may, tue
tue1100:00+5ne11755 0.0 103110
03:00+4wnw117778 0.0 103210
06:00+8sw11656 0.0 1033103
09:00+13sw2246100 0.0 1033841
12:00+16wsw22416 0.0 10321251
15:00+17w2244100 0.0 10311175
18:00+16wnw116119 0.0 103121
21:00+11ssw117571 0.0 103110
12 may, wed
wed1200:00+9ssw2281100 0.0 103225
03:00+9w1180100 0.0 103210
06:00+12s007292 0.0 103363
09:00+17s22520 0.0 1032605
12:00+21s22430 0.0 10311148
15:00+22s22425 0.0 10301176
18:00+19s23589 0.0 102971
21:00+14sse117172 0.0 103011